Orbital Elements at Epoch 2459000.5 (2020-May-31.0) TDB
Reference: JPL 31 (heliocentric ecliptic J2000)
Element | Value | Uncertainty (1-sigma) | Units |
e | .2358643122405057 | 3.1749e-08 | |
a | 2.213789559214277 | 6.9587e-09 | au |
q | 1.691635607384989 | 7.2069e-08 | au |
i | 6.671688500527393 | 3.6121e-06 | deg |
node | 139.2374292231241 | 2.8318e-05 | deg |
peri | 200.4719127644959 | 2.918e-05 | deg |
M | 152.2066024060958 | 8.4178e-06 | deg |
tp | 2458491.832582388339 (2019-Jan-08.33258239) | 2.69e-05 | TDB |
period | 1203.103330902971 3.29 | 5.6726e-06 1.553e-08 | d yr |
n | .299226168486964 | 1.4108e-09 | deg/d |
Q | 2.735943511043565 | 8.6e-09 | au |
|
| | Orbit Determination Parameters
Additional Information
|